This is the latest recevied weather packets stored in our database for station/object KE0PRS. If no packets are shown the sender has not sent any weather packets the latest 10 day(s).
| Time | Temp. | Humidity | Pressure | Rain* | Wind** | Luminosity | Snow |
|---|---|---|---|---|---|---|---|
| 1788026965 | 35° C | 37% | 1014.1 hPa | 0 mm | - | 635 W/m² | - |
| 1788026660 | 35° C | 37% | 1014.3 hPa | 0 mm | - | 677 W/m² | - |
| 1788026052 | 34.44° C | 37% | 1014.3 hPa | 0 mm | - | 452 W/m² | - |
| 1788025749 | 34.44° C | 37% | 1014.3 hPa | 0 mm | - | 417 W/m² | - |
| 1788025444 | 35° C | 36% | 1014.2 hPa | 0 mm | - | 457 W/m² | - |
| 1788025140 | 34.44° C | 37% | 1014.5 hPa | 0 mm | - | 748 W/m² | - |
| 1788024839 | 34.44° C | 37% | 1014.4 hPa | 0 mm | - | 748 W/m² | - |
| 1788024535 | 34.44° C | 38% | 1014.4 hPa | 0 mm | - | 631 W/m² | - |
| 1788024234 | 34.44° C | 38% | 1014.5 hPa | 0 mm | - | 656 W/m² | - |
| 1788023930 | 34.44° C | 38% | 1014.7 hPa | 0 mm | - | 609 W/m² | - |
| 1788023626 | 34.44° C | 37% | 1014.7 hPa | 0 mm | - | 709 W/m² | - |
| 1788023321 | 34.44° C | 37% | 1014.7 hPa | 0 mm | - | 687 W/m² | - |
| 1788023016 | 33.89° C | 38% | 1014.7 hPa | 0 mm | - | 625 W/m² | - |
| 1788022714 | 33.89° C | 38% | 1014.8 hPa | 0 mm | - | 677 W/m² | - |
| 1788022412 | 33.89° C | 38% | 1014.8 hPa | 0 mm | - | 656 W/m² | - |
| 1788022113 | 33.89° C | 39% | 1015.1 hPa | 0 mm | - | 636 W/m² | - |
| 1788021806 | 33.33° C | 38% | 1015 hPa | 0 mm | - | 619 W/m² | - |
| 1788021505 | 33.33° C | 39% | 1014.8 hPa | 0 mm | - | 599 W/m² | - |
| 1788021199 | 33.33° C | 40% | 1015.1 hPa | 0 mm | - | 589 W/m² | - |
| 1788020895 | 33.33° C | 40% | 1015.1 hPa | 0 mm | - | 573 W/m² | - |
| 1788020589 | 32.78° C | 40% | 1014.9 hPa | 0 mm | - | 561 W/m² | - |
| 1788020285 | 32.78° C | 41% | 1015.2 hPa | 0 mm | - | 547 W/m² | - |
| 1788019981 | 32.78° C | 41% | 1015.2 hPa | 0 mm | - | 527 W/m² | - |
| 1788019681 | 32.22° C | 42% | 1015.1 hPa | 0 mm | - | 522 W/m² | - |
| 1788019379 | 31.67° C | 41% | 1015.3 hPa | 0 mm | - | 512 W/m² | - |
* Rain latest hour (hover to see other rain measurements)
** Current wind speed in m/s (hover to see current wind gust speed)